[[{"header":{"parameterUnit":"m.s-1","parameterCategory":1,"la1":30.2991,"la2":30.254,"lo1":-89.0895,"lo2":-89.0444,"dy":0.0017,"dx":0.0017,"nx":28,"ny":28,"refTime":"2025-02-08T03:00:00:Z","depth":0,"parameterNumber":2,"parameterNumberName":"U-component_of_WINDS"},"data":[0,0,0,0,0,0,0,0,0,0,0,0,0,0,0,0,0,0,0,0,0,0,0,0,0,0,0,0,0,0,0,0,0,0,0,0,0,0,0,0,0,0,0,0,0,0,0,0,0,0,0,0,0,0,0,0,0,0,-0.0204,-0.0204,0,-0.0229,-0.023,-0.023,-0.0251,-0.0251,-0.0251,-0.0252,-0.0277,-0.0277,-0.0278,0,0,0,0,0,0,0,0,0,0,0,0,0,-0.0173,-0.0174,-0.0204,-0.0204,-0.0205,-0.0229,-0.023,-0.023,-0.0251,-0.0251,-0.0252,-0.0252,-0.0277,-0.0277,-0.0278,0,0,0,0,0,0,0,0,0,0,0,0,0,-0.0191,-0.0174,-0.0204,-0.0218,-0.022,-0.0229,-0.023,-0.023,-0.0251,-0.0251,-0.0252,-0.0252,-0.0277,-0.0277,-0.0278,-0.0275,0,0,-0.028,-0.028,0,0,0,0,0,0,0,0,-0.019,-0.0193,-0.0216,-0.0217,-0.0219,-0.0237,-0.0228,-0.0245,-0.0251,-0.0239,-0.0252,-0.0252,-0.0263,-0.0265,-0.0269,-0.0276,-0.0277,-0.028,-0.028,-0.0281,-0.0281,0,0,0,0,0,0,0,-0.0189,-0.0192,-0.0214,-0.0216,-0.0218,-0.0223,-0.0226,-0.0231,-0.0249,-0.024,-0.0242,-0.0244,-0.0264,-0.0268,-0.027,-0.0278,-0.028,-0.0281,-0.0281,-0.0281,-0.0283,-0.0282,0,0,0,0,0,0,-0.0186,-0.019,-0.0213,-0.0215,-0.0205,-0.0223,-0.0227,-0.0231,-0.0249,-0.0252,-0.0244,-0.0245,-0.0267,-0.0269,-0.0271,-0.0268,-0.0281,-0.0281,-0.0282,-0.0283,-0.0282,-0.0282,0,0,0,0,0,0,-0.0185,-0.0188,-0.0212,-0.0203,-0.0207,-0.0223,-0.0228,-0.0231,-0.0236,-0.0252,-0.0255,-0.0245,-0.0267,-0.027,-0.0274,-0.0269,-0.0282,-0.0282,-0.0283,-0.0283,-0.0282,-0.0263,0,0,0,0,0,0,-0.0184,-0.0187,-0.0187,-0.0203,-0.0207,-0.0215,-0.0228,-0.0232,-0.0237,-0.0239,-0.0254,-0.0257,-0.0268,-0.0272,-0.0274,-0.027,-0.0283,-0.0284,-0.0283,-0.0282,-0.0264,-0.0262,-0.026,0,0,0,0,0,-0.0183,-0.018,-0.0187,-0.0189,-0.0207,-0.0215,-0.0217,-0.023,-0.0236,-0.0236,-0.0246,-0.0256,-0.0269,-0.0273,-0.0275,-0.0271,-0.0284,-0.0283,-0.0282,-0.0265,-0.0262,-0.026,0,0,0,0,0,0,-0.0163,-0.0183,-0.019,-0.0193,-0.0202,-0.0218,-0.0218,-0.0227,-0.0235,-0.0236,-0.0252,-0.0255,-0.0257,-0.0264,-0.0268,-0.0269,-0.0278,-0.0278,-0.0264,-0.0261,-0.0259,-0.0257,-0.0283,0,0,0,0,0,-0.0159,-0.0165,-0.0181,-0.0182,-0.0186,-0.0201,-0.0205,-0.0214,-0.0225,-0.0229,-0.0239,-0.0248,-0.0255,-0.0258,-0.0265,-0.0265,-0.0268,-0.0263,-0.0261,-0.0259,-0.0259,-0.0258,-0.0256,-0.0279,-0.0279,-0.0279,0,0,-0.0151,-0.0162,-0.0165,-0.0178,-0.0186,-0.0191,-0.0204,-0.0209,-0.0212,-0.0229,-0.0233,-0.0241,-0.0253,-0.0254,-0.0255,-0.026,-0.0253,-0.0258,-0.0257,-0.0257,-0.0257,-0.0255,-0.0253,-0.0279,-0.0279,-0.0279,0,0,-0.0139,-0.0148,-0.0149,-0.0157,-0.0169,-0.0179,-0.0179,-0.0194,-0.02,-0.0204,-0.0217,-0.0221,-0.0231,-0.0238,-0.0244,-0.0232,-0.0242,-0.0234,-0.0223,-0.0222,-0.022,-0.0219,-0.0214,-0.0212,-0.0233,-0.0233,-0.0233,0,-0.0127,-0.0135,-0.0149,-0.0152,-0.0157,-0.0172,-0.0173,-0.018,-0.0194,-0.0197,-0.0202,-0.0215,-0.0224,-0.0227,-0.0224,-0.0228,-0.0228,-0.0232,-0.022,-0.0218,-0.0217,-0.0213,-0.0211,-0.0232,-0.0232,-0.0232,-0.0232,0,-0.0119,-0.0124,-0.0124,-0.0136,-0.0141,-0.0143,-0.0157,-0.016,-0.0169,-0.0178,-0.0181,-0.0192,-0.0201,-0.0202,-0.0211,-0.0206,-0.0209,-0.0217,-0.0226,-0.0213,-0.021,-0.0208,-0.0231,-0.0231,-0.0231,-0.0232,0,0,-0.0096,-0.0115,-0.0115,-0.012,-0.0134,-0.0138,-0.014,-0.0149,-0.0151,-0.016,-0.0161,-0.0169,-0.0177,-0.0182,-0.0191,-0.0191,-0.018,-0.0199,-0.0199,-0.0195,-0.0175,-0.0169,-0.0167,-0.0186,-0.0186,-0.0186,-0.0174,0,-0.0086,-0.0091,-0.0103,-0.0104,-0.0108,-0.0122,-0.0124,-0.0133,-0.0141,-0.0145,-0.0154,-0.0159,-0.0169,-0.0172,-0.0172,-0.0182,-0.0176,-0.0183,-0.0188,-0.0188,-0.0185,-0.0165,-0.0159,-0.0146,-0.0172,-0.0172,-0.0172,0,-0.0074,-0.0082,-0.0083,-0.0096,-0.0098,-0.01,-0.0108,-0.0112,-0.0121,-0.0127,-0.0133,-0.0143,-0.0145,-0.0154,-0.0157,-0.0161,-0.0164,-0.0169,-0.0169,-0.017,-0.0179,-0.0165,-0.0143,-0.0141,-0.017,-0.017,-0.017,0,-0.0056,-0.0067,-0.0069,-0.0073,-0.0088,-0.0088,-0.0095,-0.0104,-0.0108,-0.0115,-0.0118,-0.0125,-0.0128,-0.0133,-0.0145,-0.015,-0.0146,-0.0156,-0.0151,-0.0151,-0.015,-0.015,-0.0128,-0.0152,-0.0152,-0.0152,-0.0152,0,-0.0043,-0.0044,-0.0061,-0.0062,-0.0062,-0.0076,-0.0076,-0.0083,-0.0091,-0.0094,-0.0106,-0.0109,-0.0124,-0.0127,-0.0136,-0.0137,-0.0139,-0.0143,-0.0145,-0.0142,-0.0141,-0.0144,-0.0145,-0.0151,-0.0152,-0.0152,-0.0152,0,-0.0024,-0.0035,-0.0038,-0.0052,-0.0055,-0.0055,-0.0066,-0.0067,-0.0076,-0.0079,-0.008,-0.0094,-0.0098,-0.011,-0.0118,-0.0124,-0.0122,-0.0127,-0.0119,-0.012,-0.0114,-0.0114,-0.0093,-0.0091,-0.0116,-0.0116,-0.0116,0,-0.0015,-0.0015,-0.0028,-0.0031,-0.0036,-0.004,-0.0044,-0.0057,-0.006,-0.007,-0.007,-0.0076,-0.0081,-0.0088,-0.0098,-0.0104,-0.0108,-0.01,-0.0109,-0.0105,-0.0108,-0.0107,-0.0107,-0.0098,-0.0098,-0.0098,-0.0097,0,0.0003,-0.0003,-0.0008,-0.0014,-0.0018,-0.0024,-0.003,-0.0032,-0.0046,-0.0049,-0.0054,-0.0058,-0.0065,-0.007,-0.0077,-0.0084,-0.0093,-0.0094,-0.0093,-0.009,-0.0085,-0.0087,-0.0113,-0.0095,-0.0095,-0.0095,-0.0096,-0.0096,0.0017,0.0017,0.0008,0.0003,-0.0003,-0.0008,-0.001,-0.0018,-0.0022,-0.003,-0.0037,-0.004,-0.0049,-0.0059,-0.0064,-0.0067,-0.0072,-0.0071,-0.007,-0.007,-0.0068,-0.0085,-0.0069,-0.0069,-0.0069,-0.0069,-0.0069,0,0.0035,0.0029,0.0024,0.0016,0.0013,0.0005,-0.0002,-0.0005,-0.0008,-0.0015,-0.0019,-0.0024,-0.0029,-0.0039,-0.0045,-0.0045,-0.0049,-0.0046,-0.0046,-0.0047,-0.0064,-0.0064,-0.0042,-0.0042,-0.0042,-0.0042,-0.0042,-0.0042,0.0043,0.0042,0.0036,0.0032,0.0026,0.0022,0.0019,0.0014,0.0009,0.0004,0.0,-0.0006,-0.0014,-0.002,-0.0025,-0.0027,-0.0029,-0.0024,-0.0028,-0.0043,-0.0046,-0.0048,-0.0049,-0.0024,-0.0024,-0.0011,-0.0011,-0.0011]},{"header":{"parameterUnit":"m.s-1","parameterCategory":1,"la1":30.2991,"la2":30.254,"lo1":-89.0895,"lo2":-89.0444,"dy":0.0017,"dx":0.0017,"nx":28,"ny":28,"refTime":"2025-02-08T03:00:00:Z","depth":0,"parameterNumber":3,"parameterNumberName":"V-component_of_WINDS"},"data":[0,0,0,0,0,0,0,0,0,0,0,0,0,0,0,0,0,0,0,0,0,0,0,0,0,0,0,0,0,0,0,0,0,0,0,0,0,0,0,0,0,0,0,0,0,0,0,0,0,0,0,0,0,0,0,0,0,0,3.7823,3.7826,0,3.8077,3.808,3.8083,3.8171,3.817,3.8169,3.8168,3.8431,3.8438,3.8446,0,0,0,0,0,0,0,0,0,0,0,0,0,3.742,3.7427,3.7823,3.7826,3.783,3.8077,3.808,3.8084,3.8172,3.817,3.8169,3.8168,3.8428,3.8437,3.8447,0,0,0,0,0,0,0,0,0,0,0,0,0,3.7626,3.7429,3.7823,3.7903,3.7913,3.8076,3.808,3.8085,3.8172,3.817,3.8169,3.8167,3.8425,3.8436,3.8448,3.855,0,0,3.8484,3.8489,0,0,0,0,0,0,0,0,3.7615,3.7641,3.7888,3.7898,3.7909,3.8091,3.8034,3.8241,3.8172,3.8073,3.8168,3.8167,3.8319,3.8339,3.839,3.8563,3.8574,3.8485,3.8492,3.8498,3.8501,0,0,0,0,0,0,0,3.76,3.7631,3.7924,3.7892,3.7904,3.7928,3.7956,3.8074,3.8201,3.8082,3.8089,3.8118,3.8324,3.8379,3.8397,3.8578,3.8485,3.8495,3.8503,3.8507,3.8854,3.8856,0,0,0,0,0,0,3.7572,3.7618,3.7916,3.7931,3.7755,3.7937,3.7968,3.8034,3.82,3.8224,3.8119,3.8121,3.8359,3.8383,3.8407,3.8542,3.8497,3.8509,3.8515,3.8852,3.8854,3.8857,0,0,0,0,0,0,3.7563,3.7597,3.7906,3.7777,3.7818,3.7945,3.8019,3.804,3.8094,3.8228,3.8252,3.815,3.8359,3.839,3.8515,3.8552,3.8514,3.8525,3.8849,3.8853,3.8856,3.881,0,0,0,0,0,0,3.7551,3.7594,3.7632,3.7777,3.7824,3.8008,3.8021,3.8046,3.8114,3.812,3.8264,3.8287,3.836,3.8497,3.8527,3.8568,3.8534,3.8847,3.8851,3.8855,3.8809,3.8812,3.8814,0,0,0,0,0,3.7536,3.7608,3.7634,3.7669,3.7875,3.801,3.8037,3.812,3.8117,3.8158,3.8245,3.8282,3.8543,3.8509,3.8544,3.8588,3.8845,3.885,3.8854,3.8808,3.8811,3.8814,0,0,0,0,0,0,3.7464,3.7629,3.7658,3.7779,3.788,3.8024,3.8079,3.8119,3.8223,3.8224,3.8322,3.8355,3.8473,3.8543,3.8503,3.87,3.8696,3.8708,3.865,3.8654,3.8656,3.8637,3.8544,0,0,0,0,0,3.7462,3.7556,3.7696,3.7789,3.7839,3.795,3.8011,3.8067,3.8175,3.8218,3.8314,3.8419,3.8525,3.8593,3.8697,3.882,3.8855,3.8868,3.887,3.8871,3.8881,3.8956,3.8965,3.8872,3.8872,3.8872,0,0,3.7459,3.7561,3.7614,3.7778,3.7862,3.796,3.7985,3.8086,3.8161,3.8234,3.8359,3.8433,3.8557,3.8683,3.8743,3.8745,3.8915,3.8877,3.8877,3.8887,3.8962,3.8971,3.8978,3.8875,3.8875,3.8874,0,0,3.7505,3.759,3.7679,3.7764,3.7893,3.7967,3.7988,3.8128,3.8181,3.8308,3.8366,3.8457,3.8636,3.8724,3.8792,3.8876,3.8916,3.8908,3.892,3.8992,3.8999,3.9007,3.9041,3.9051,3.8916,3.8916,3.8916,0,3.7485,3.7634,3.772,3.7821,3.7893,3.7964,3.8058,3.8136,3.8292,3.8341,3.8341,3.8572,3.8659,3.8809,3.883,3.8881,3.8912,3.8892,3.8991,3.8999,3.9007,3.9041,3.9053,3.8915,3.8915,3.8915,3.8915,0,3.7606,3.7709,3.7766,3.7917,3.7995,3.8091,3.8194,3.8264,3.8313,3.8389,3.852,3.8629,3.8759,3.8799,3.8847,3.8957,3.8955,3.8971,3.8971,3.9013,3.9047,3.906,3.8912,3.8913,3.8913,3.8914,0,0,3.7612,3.7811,3.7831,3.7903,3.8051,3.8134,3.8235,3.8363,3.8423,3.8528,3.8619,3.8771,3.8789,3.8866,3.8926,3.8989,3.9055,3.8999,3.9004,3.9009,3.9188,3.9177,3.919,3.9081,3.9084,3.9086,3.9179,0,3.7679,3.7863,3.7946,3.8093,3.8192,3.8264,3.8353,3.8455,3.8529,3.8625,3.8708,3.8816,3.8829,3.8877,3.8942,3.9032,3.9092,3.9027,3.917,3.9174,3.9139,3.9207,3.9194,3.9277,3.9192,3.9195,3.9196,0,3.7782,3.789,3.8047,3.819,3.8234,3.8312,3.844,3.8529,3.8649,3.8699,3.8787,3.8845,3.8958,3.8948,3.9108,3.9061,3.9125,3.9178,3.9184,3.9202,3.9189,3.9231,3.9304,3.9318,3.9217,3.9215,3.9214,0,3.7775,3.796,3.808,3.8138,3.8305,3.8359,3.8432,3.855,3.8623,3.8735,3.8784,3.8907,3.8974,3.9069,3.9161,3.9144,3.9313,3.931,3.9361,3.9359,3.9394,3.9391,3.9482,3.943,3.943,3.9429,3.9429,0,3.7844,3.7938,3.8079,3.8153,3.8263,3.8358,3.8465,3.8543,3.8648,3.8741,3.8809,3.8895,3.9009,3.911,3.9181,3.9305,3.9334,3.9381,3.9399,3.9376,3.9371,3.9421,3.9419,3.9433,3.9432,3.9431,3.9431,0,3.7854,3.7952,3.8088,3.8237,3.8277,3.8351,3.848,3.8556,3.8634,3.8751,3.8784,3.8908,3.9031,3.9131,3.9291,3.934,3.9471,3.949,3.9431,3.9441,3.9488,3.9484,3.9617,3.9641,3.9568,3.9569,3.9569,0,3.7893,3.7968,3.8125,3.8192,3.8264,3.8371,3.8447,3.8546,3.8623,3.8767,3.8827,3.8955,3.9063,3.9257,3.9363,3.9487,3.9512,3.9551,3.9532,3.9508,3.9518,3.9514,3.9524,3.9553,3.9553,3.9553,3.9554,0,3.7952,3.7998,3.8104,3.823,3.8319,3.8423,3.8528,3.8579,3.8698,3.8781,3.8909,3.8992,3.9158,3.9286,3.9423,3.95,3.9549,3.9559,3.9578,3.9557,3.9521,3.9545,3.944,3.9556,3.9555,3.9555,3.9555,3.9555,3.798,3.8052,3.8176,3.8294,3.8384,3.8482,3.8563,3.8653,3.876,3.8903,3.8955,3.9087,3.921,3.9399,3.9477,3.9584,3.9588,3.9615,3.9622,3.9628,3.9628,3.9502,3.9608,3.9608,3.9609,3.9609,3.9609,0,3.8046,3.813,3.8238,3.8385,3.8479,3.8516,3.8636,3.8713,3.8828,3.8938,3.9044,3.9193,3.9318,3.9435,3.9568,3.9631,3.9657,3.9663,3.966,3.9679,3.9613,3.9586,3.964,3.964,3.964,3.964,3.964,3.964,3.8092,3.8217,3.8279,3.8451,3.8535,3.8665,3.8731,3.8824,3.8913,3.9076,3.9181,3.9257,3.9372,3.9514,3.9632,3.9664,3.9711,3.9712,3.9749,3.9687,3.9682,3.9678,3.9653,3.972,3.972,3.9806,3.9807,3.9808]}]]